Regional Weather Roundup
Issued by NWS

Home | Current Version | Previous Version | Text Only | Print | Product List | Glossary On
Versions: 1 2 3 4 5 6 7 8 9 10 11 12 13 14 15 16 17 18 19 20 21 22 23 24 25 26 27 28 29 30 31 32 33 34 35 36 37 38 39 40 41 42 43 44 45 46 47 48 49 50
000
ASUS45 KBOU 051507
RWRCO

WEATHER ROUNDUP FOR COLORADO
NATIONAL WEATHER SERVICE DENVER/BOULDER CO
900 AM MDT TUE MAY 05 2015

NOTE: "FAIR" INDICATES FEW OR NO CLOUDS BELOW 12000 FEET WITH NO
SIGNIFICANT WEATHER AND/OR OBSTRUCTIONS TO VISIBILITY.

COZ001>005-013-030-031-051600-
...NORTHWEST COLORADO...

CITY           SKY/WX    TMP DP  RH WIND       PRES   REMARKS
CRAIG          SUNNY     49  39  68 CALM      29.93F
HAYDEN         NOT AVBL
MEEKER         MOSUNNY   50  39  66 CALM      29.92F
MOUNT WERNER   NOT AVBL
STEAMBOAT SPGS SUNNY     47  37  69 CALM      29.94S
WALDEN         SUNNY     37  37 100 CALM      30.00F
$$

COZ006>008-011-051600-
...WEST CENTRAL VALLEYS...

CITY           SKY/WX    TMP DP  RH WIND       PRES   REMARKS
GRAND JUNCTION CLOUDY    58  44  60 SE3       29.86S
MONTROSE       CLOUDY    52  46  80 CALM      29.91S
EAGLE          MOSUNNY   46  39  76 CALM      29.96F
RIFLE          MOSUNNY   53  43  68 CALM      29.90S
DELTA          CLOUDY    57  46  68 CALM      29.89S
NUCLA          DRIZZLE   48  46  93 CALM      29.96S
$$

COZ017>023-064>068-051600-
...SOUTHWEST COLORADO...

CITY           SKY/WX    TMP DP  RH WIND       PRES   REMARKS
DURANGO        CLOUDY    46  43  89 CALM      29.95S
CORTEZ         LGT RAIN  48  45  89 S5        29.95R
PAGOSA SPRINGS LGT RAIN  44  43  97 E3        29.99S
TELLURIDE      DRIZZLE   40  39  97 CALM      30.01F
WOLF CREEK PAS NOT AVBL
$$

COZ009-010-012-014-032>034-037-058>063-051600-
...CENTRAL COLORADO...

CITY           SKY/WX    TMP DP  RH WIND       PRES   REMARKS
ASPEN          MOSUNNY   50  38  63 VRB5      29.94F
BUENA VISTA    NOT AVBL
COPPER MTN     MOSUNNY   41  28  60 S10       30.12F
BERTHOUD PASS  HAZE      28  19  69 SE16      30.17F VSB<1/4 WCI  17
COTTONWOOD PAS FOG       41  37  87 SE5       30.07F VSB 1/2
GUNNISON       CLOUDY    46  37  71 N5        29.99F
KREMMLING      CLOUDY    37  36  93 CALM      30.01F
LEADVILLE      CLOUDY    38  35  89 S6        30.05F
MONARCH PASS   CLOUDY    32  30  93 MISG      30.19F
SALIDA         CLOUDY    45  43  93 CALM      30.07F
SUNLIGHT       MOSUNNY   41  36  81 CALM      30.11S
WILKERSON PASS CLOUDY    32  32 100 SE3       30.15S FOG
$$

COZ069>075-051600-
...SAN LUIS VALLEY/SANGRE DE CRISTO MOUNTAINS...

CITY           SKY/WX    TMP DP  RH WIND       PRES   REMARKS
ALAMOSA        LGT RAIN  43  40  89 W9        29.96F
LA VETA PASS   DRZL/FOG  36  36 100 MISG      30.05F VSB 1/4
SAGUACHE       CLOUDY    45  43  93 CALM      29.97F
$$

COZ035-036-038>040-051600-
...NORTHERN COLORADO FRONT RANGE...

CITY           SKY/WX    TMP DP  RH WIND       PRES   REMARKS
DENVER INTL AP CLOUDY    51  48  89 SE13      29.97F
DMNS CITY PARK   N/A     50  49  93 W1        29.97S
AURORA         CLOUDY    50  50 100 S12       29.98F
FRONT RANGE AP CLOUDY    54  50  87 SE10      29.99S
ERIE MUNI ARPT CLOUDY    50  49  97 CALM      29.97F FOG
BOULDER MUN AP CLOUDY    48  48 100 CALM      29.97F FOG
CENTENNIAL     LGT RAIN  50  47  89 NW3       29.97F
BROOMFIELD     FOG       50  50 100 CALM      29.98F VSB 1/2
FORT COLLINS   CLOUDY    48  46  93 SE8       30.00S VSB<1/4
LONGMONT       CLOUDY    52  50  93 CALM      29.99F FOG
$$

COZ041-046-047-076>085-087-088-051600-
...PIKES PEAK/PALMER DIVIDE AND SOUTHERN FOOTHILLS...

CITY           SKY/WX    TMP DP  RH WIND       PRES   REMARKS
COLO. SPRINGS  CLOUDY    48  47  96 E10       29.99F FOG
A. F. ACADEMY  CLOUDY    48  48 100 SE8       29.98F
ELLICOTT       LGT RAIN N/A N/A N/A E13       29.97F
FALCON         FOG       46  46 100 E9        30.02S VSB<1/4
FORT CARSON    LGT RAIN  49  49 100 E9        29.96F
LIMON          CLOUDY    48  48 100 SE10      29.99F FOG
MONUMENT HILL  CLOUDY    45  45 100 SE8       30.00F
TRINIDAD       CLOUDY    51  48  89 SE5       29.92F
$$

COZ042>045-048>051-090-091-051600-
...NORTHEAST COLORADO...

CITY           SKY/WX    TMP DP  RH WIND       PRES   REMARKS
GREELEY ARPT   CLOUDY    48  43  81 SE7       29.99F
AKRON          CLOUDY    48  48 100 SE10      30.00S FOG
BURLINGTON     LGT RAIN  53  52  96 SE9       29.99S FOG
WRAY           FOG      N/A N/A N/A NE7       30.01S VSB 1/2
STERLING       CLOUDY    50  46  87 NE3       29.99F
HOLYOKE        NOT AVBL
FORT MORGAN    CLOUDY    49  47  91 E9        30.00S
$$

COZ086-089-092>099-051600-
...SOUTHEAST COLORADO...

CITY           SKY/WX    TMP DP  RH WIND       PRES   REMARKS
PUEBLO         LGT RAIN  51  51 100 E15       29.92F FOG
LA JUNTA       CLOUDY    56  53  90 E15       29.92F
LAMAR          LGT RAIN  56  55  97 E12       29.91F FOG
SPRINGFIELD      N/A     54  53  97 E14       29.92F
$$



USA.gov is the U.S. government's official web portal to all federal, state and local government web resources and services.